This is the latest recevied weather packets stored in our database for station/object KI5MKI. If no packets are shown the sender has not sent any weather packets the latest 10 day(s).
| Time | Temp. | Humidity | Pressure | Rain* | Wind** | Luminosity | Snow |
|---|---|---|---|---|---|---|---|
| 1777815912 | 17.22° C | 71% | 1021.8 hPa | 0 mm | - | 62 W/m² | - |
| 1777815609 | 16.67° C | 72% | 1021.7 hPa | 0 mm | - | 61 W/m² | - |
| 1777815306 | 16.67° C | 71% | 1021.8 hPa | 0 mm | - | 60 W/m² | - |
| 1777815002 | 16.11° C | 73% | 1021.9 hPa | 0 mm | - | 59 W/m² | - |
| 1777814699 | 16.11° C | 72% | 1021.8 hPa | 0 mm | - | 58 W/m² | - |
| 1777814395 | 15.56° C | 74% | 1021.9 hPa | 0 mm | - | 57 W/m² | - |
| 1777814093 | 15.56° C | 74% | 1021.8 hPa | 0 mm | - | 55 W/m² | - |
| 1777813789 | 15° C | 73% | 1021.8 hPa | 0 mm | - | 54 W/m² | - |
| 1777813487 | 15° C | 73% | 1021.9 hPa | 0 mm | - | 52 W/m² | - |
| 1777813184 | 15° C | 73% | 1021.8 hPa | 0 mm | - | 52 W/m² | - |
| 1777812882 | 14.44° C | 74% | 1021.8 hPa | 0 mm | - | 50 W/m² | - |
| 1777812578 | 14.44° C | 74% | 1021.8 hPa | 0 mm | - | 48 W/m² | - |
| 1777812276 | 13.89° C | 74% | 1021.9 hPa | 0 mm | - | 46 W/m² | - |
| 1777811974 | 13.89° C | 75% | 1021.9 hPa | 0 mm | - | 43 W/m² | - |
| 1777811673 | 13.89° C | 75% | 1021.7 hPa | 0 mm | - | 41 W/m² | - |
| 1777811369 | 13.33° C | 76% | 1021.7 hPa | 0 mm | - | 38 W/m² | - |
| 1777811066 | 13.33° C | 77% | 1021.7 hPa | 0 mm | - | 35 W/m² | - |
| 1777810763 | 12.78° C | 77% | 1021.6 hPa | 0 mm | - | 32 W/m² | - |
| 1777810460 | 12.78° C | 78% | 1021.4 hPa | 0 mm | - | 29 W/m² | - |
| 1777810155 | 12.78° C | 78% | 1021.4 hPa | 0 mm | - | 26 W/m² | - |
| 1777809853 | 12.78° C | 78% | 1021.2 hPa | 0 mm | - | 23 W/m² | - |
| 1777809550 | 12.78° C | 79% | 1021.4 hPa | 0 mm | - | 19 W/m² | - |
| 1777809248 | 12.22° C | 79% | 1021.2 hPa | 0 mm | - | 15 W/m² | - |
| 1777808946 | 12.22° C | 79% | 1021.3 hPa | 0 mm | - | 12 W/m² | - |
| 1777808642 | 12.22° C | 79% | 1021.3 hPa | 0 mm | - | 8 W/m² | - |
* Rain latest hour (hover to see other rain measurements)
** Current wind speed in m/s (hover to see current wind gust speed)